Location: Peebles
(55.6412°N, 3.1714°W)
Time: 07:51:19
(UTC+01:00)

Okean 3 - Visible Passes

Search period start: 10 June 2023 00:00
Search period end: 20 June 2023 00:00
Orbit: 568 x 594 km, 82.5° (Epoch: 09 June)

Date Brightness Start Highest point End Pass type
(mag) Time Alt. Az. Time Alt. Az. Time Alt. Az.
10 Jun 5.9 00:59:37 10° WSW 01:02:25 17° WNW 01:05:14 10° NNW visible
10 Jun 3.5 23:25:58 10° SSW 23:30:10 81° WNW 23:34:22 10° N visible
11 Jun 6.1 01:05:46 10° W 01:07:59 14° WNW 01:10:12 10° NNW visible
11 Jun 3.9 23:31:25 10° SSW 23:35:33 62° WNW 23:39:42 10° N visible
12 Jun 6.3 01:12:15 10° WNW 01:13:33 11° NW 01:14:51 10° NW visible
12 Jun 4.4 23:36:55 10° SSW 23:40:57 47° WNW 23:45:01 10° N visible
13 Jun 4.9 23:42:30 10° SW 23:46:23 36° WNW 23:50:16 10° N visible
14 Jun 5.3 23:48:10 10° SW 23:51:50 29° WNW 23:55:29 10° N visible
15 Jun 5.7 23:53:56 10° WSW 23:57:17 23° WNW 00:00:39 10° N visible
16 Jun 6.0 23:59:49 10° WSW 00:02:47 19° WNW 00:05:45 10° NNW visible
18 Jun 6.2 00:05:49 10° W 00:08:17 15° WNW 00:10:45 10° NNW visible
19 Jun 6.4 00:12:06 10° W 00:13:48 12° NW 00:15:32 10° NNW visible
